Year,Month,Day,Hour,Minute,Value (Times are PST for temperature in C)
2019,06,15,00,00,12.80
2019,06,15,00,01,12.80
2019,06,15,00,02,12.80
2019,06,15,00,03,12.80
2019,06,15,00,04,12.80
2019,06,15,00,05,12.80
2019,06,15,00,06,12.80
2019,06,15,00,07,12.80
2019,06,15,00,08,12.80
2019,06,15,00,09,12.80
2019,06,15,00,10,12.80
2019,06,15,00,11,12.80
2019,06,15,00,12,12.80
2019,06,15,00,13,12.80
2019,06,15,00,14,12.80
2019,06,15,00,15,12.80
2019,06,15,00,16,12.70
2019,06,15,00,17,12.70
2019,06,15,00,18,12.70
2019,06,15,00,19,12.70
2019,06,15,00,20,12.60
2019,06,15,00,21,12.60
2019,06,15,00,22,12.60
2019,06,15,00,23,12.60
2019,06,15,00,24,12.60
2019,06,15,00,25,12.60
2019,06,15,00,26,12.60
2019,06,15,00,27,12.60
2019,06,15,00,28,12.60
2019,06,15,00,29,12.60
2019,06,15,00,30,12.50
2019,06,15,00,31,12.50
2019,06,15,00,32,12.50
2019,06,15,00,33,12.50
2019,06,15,00,34,12.50
2019,06,15,00,35,12.50
2019,06,15,00,36,12.50
2019,06,15,00,37,12.50
2019,06,15,00,38,12.50
2019,06,15,00,39,12.50
2019,06,15,00,40,12.50
2019,06,15,00,41,12.50
2019,06,15,00,42,12.50
2019,06,15,00,43,12.50
2019,06,15,00,44,12.50
2019,06,15,00,45,12.50
2019,06,15,00,46,12.50
2019,06,15,00,47,12.50
2019,06,15,00,48,12.50
2019,06,15,00,49,12.50
2019,06,15,00,50,12.50
2019,06,15,00,51,12.50
2019,06,15,00,52,12.50
2019,06,15,00,53,12.50
2019,06,15,00,54,12.50
2019,06,15,00,55,12.50
2019,06,15,00,56,12.50
2019,06,15,00,57,12.50
2019,06,15,00,58,12.50
2019,06,15,00,59,12.50
2019,06,15,01,00,12.50
2019,06,15,01,01,12.60
2019,06,15,01,02,12.60
2019,06,15,01,03,12.60
2019,06,15,01,04,12.60
2019,06,15,01,05,12.60
2019,06,15,01,06,12.60
2019,06,15,01,07,12.60
2019,06,15,01,08,12.60
2019,06,15,01,09,12.50
2019,06,15,01,10,12.50
2019,06,15,01,11,12.50
2019,06,15,01,12,12.50
2019,06,15,01,13,12.50
2019,06,15,01,14,12.50
2019,06,15,01,15,12.50
2019,06,15,01,16,12.50
2019,06,15,01,17,12.50
2019,06,15,01,18,12.50
2019,06,15,01,19,12.50
2019,06,15,01,20,12.50
2019,06,15,01,21,12.50
2019,06,15,01,22,12.50
2019,06,15,01,23,12.50
2019,06,15,01,24,12.50
2019,06,15,01,25,12.50
2019,06,15,01,26,12.50
2019,06,15,01,27,12.50
2019,06,15,01,28,12.50
2019,06,15,01,29,12.50
2019,06,15,01,30,12.50
2019,06,15,01,31,12.40
2019,06,15,01,32,12.40
2019,06,15,01,33,12.40
2019,06,15,01,34,12.40
2019,06,15,01,35,12.40
2019,06,15,01,36,12.40
2019,06,15,01,37,12.40
2019,06,15,01,38,12.40
2019,06,15,01,39,12.40
2019,06,15,01,40,12.40
2019,06,15,01,41,12.40
2019,06,15,01,42,12.30
2019,06,15,01,43,12.30
2019,06,15,01,44,12.30
2019,06,15,01,45,12.30
2019,06,15,01,46,12.30
2019,06,15,01,47,12.30
2019,06,15,01,48,12.30
2019,06,15,01,49,12.30
2019,06,15,01,50,12.30
2019,06,15,01,51,12.30
2019,06,15,01,52,12.30
2019,06,15,01,53,12.30
2019,06,15,01,54,12.30
2019,06,15,01,55,12.30
2019,06,15,01,56,12.30
2019,06,15,01,57,12.30
2019,06,15,01,58,12.30
2019,06,15,01,59,12.30
2019,06,15,02,00,12.30
2019,06,15,02,01,12.30
2019,06,15,02,02,12.30
2019,06,15,02,03,12.30
2019,06,15,02,04,12.30
2019,06,15,02,05,12.30
2019,06,15,02,06,12.30
2019,06,15,02,07,12.30
2019,06,15,02,08,12.30
2019,06,15,02,09,12.30
2019,06,15,02,10,12.30
2019,06,15,02,11,12.30
2019,06,15,02,12,12.30
2019,06,15,02,13,12.30
2019,06,15,02,14,12.30
2019,06,15,02,15,12.30
2019,06,15,02,16,12.20
2019,06,15,02,17,12.20
2019,06,15,02,18,12.20
2019,06,15,02,19,12.20
2019,06,15,02,20,12.10
2019,06,15,02,21,12.10
2019,06,15,02,22,12.10
2019,06,15,02,23,12.10
2019,06,15,02,24,12.00
2019,06,15,02,25,12.00
2019,06,15,02,26,12.00
2019,06,15,02,27,12.00
2019,06,15,02,28,12.00
2019,06,15,02,29,11.90
2019,06,15,02,30,11.90
2019,06,15,02,31,11.90
2019,06,15,02,32,11.90
2019,06,15,02,33,11.90
2019,06,15,02,34,11.90
2019,06,15,02,35,11.90
2019,06,15,02,36,11.90
2019,06,15,02,37,11.80
2019,06,15,02,38,11.80
2019,06,15,02,39,11.80
2019,06,15,02,40,11.80
2019,06,15,02,41,11.80
2019,06,15,02,42,11.80
2019,06,15,02,43,11.80
2019,06,15,02,44,11.80
2019,06,15,02,45,11.80
2019,06,15,02,46,11.90
2019,06,15,02,47,11.90
2019,06,15,02,48,11.90
2019,06,15,02,49,11.90
2019,06,15,02,50,11.90
2019,06,15,02,51,11.90
2019,06,15,02,52,12.00
2019,06,15,02,53,12.00
2019,06,15,02,54,12.00
2019,06,15,02,55,12.00
2019,06,15,02,56,12.00
2019,06,15,02,57,12.00
2019,06,15,02,58,12.10
2019,06,15,02,59,12.10
2019,06,15,03,00,12.10
2019,06,15,03,01,12.10
2019,06,15,03,02,12.10
2019,06,15,03,03,12.10
2019,06,15,03,04,12.10
2019,06,15,03,05,12.10
2019,06,15,03,06,12.20
2019,06,15,03,07,12.10
2019,06,15,03,08,12.20
2019,06,15,03,09,12.20
2019,06,15,03,10,12.20
2019,06,15,03,11,12.20
2019,06,15,03,12,12.20
2019,06,15,03,13,12.20
2019,06,15,03,14,12.20
2019,06,15,03,15,12.20
2019,06,15,03,16,12.20
2019,06,15,03,17,12.20
2019,06,15,03,18,12.20
2019,06,15,03,19,12.20
2019,06,15,03,20,12.20
2019,06,15,03,21,12.20
2019,06,15,03,22,12.20
2019,06,15,03,23,12.20
2019,06,15,03,24,12.20
2019,06,15,03,25,12.10
2019,06,15,03,26,12.10
2019,06,15,03,27,12.10
2019,06,15,03,28,12.10
2019,06,15,03,29,12.10
2019,06,15,03,30,12.10
2019,06,15,03,31,12.10
2019,06,15,03,32,12.10
2019,06,15,03,33,12.10
2019,06,15,03,34,12.10
2019,06,15,03,35,12.00
2019,06,15,03,36,12.00
2019,06,15,03,37,12.00
2019,06,15,03,38,12.00
2019,06,15,03,39,12.00
2019,06,15,03,40,11.90
2019,06,15,03,41,11.90
2019,06,15,03,42,11.90
2019,06,15,03,43,11.90
2019,06,15,03,44,11.90
2019,06,15,03,45,11.90
2019,06,15,03,46,11.90
2019,06,15,03,47,11.90
2019,06,15,03,48,11.80
2019,06,15,03,49,11.80
2019,06,15,03,50,11.90
2019,06,15,03,51,11.90
2019,06,15,03,52,11.90
2019,06,15,03,53,11.90
2019,06,15,03,54,11.90
2019,06,15,03,55,11.90
2019,06,15,03,56,11.90
2019,06,15,03,57,11.80
2019,06,15,03,58,11.80
2019,06,15,03,59,11.80
2019,06,15,04,00,11.80
2019,06,15,04,01,11.80
2019,06,15,04,02,11.80
2019,06,15,04,03,11.80
2019,06,15,04,04,11.80
2019,06,15,04,05,11.80
2019,06,15,04,06,11.70
2019,06,15,04,07,11.70
2019,06,15,04,08,11.70
2019,06,15,04,09,11.60
2019,06,15,04,10,11.60
2019,06,15,04,11,11.60
2019,06,15,04,12,11.60
2019,06,15,04,13,11.60
2019,06,15,04,14,11.60
2019,06,15,04,15,11.50
2019,06,15,04,16,11.40
2019,06,15,04,17,11.40
2019,06,15,04,18,11.40
2019,06,15,04,19,11.40
2019,06,15,04,20,11.40
2019,06,15,04,21,11.40
2019,06,15,04,22,11.30
2019,06,15,04,23,11.30
2019,06,15,04,24,11.30
2019,06,15,04,25,11.30
2019,06,15,04,26,11.20
2019,06,15,04,27,11.20
2019,06,15,04,28,11.20
2019,06,15,04,29,11.20
2019,06,15,04,30,11.20
2019,06,15,04,31,11.20
2019,06,15,04,32,11.20
2019,06,15,04,33,11.20
2019,06,15,04,34,11.20
2019,06,15,04,35,11.20
2019,06,15,04,36,11.10
2019,06,15,04,37,11.10
2019,06,15,04,38,11.10
2019,06,15,04,39,11.10
2019,06,15,04,40,11.10
2019,06,15,04,41,11.10
2019,06,15,04,42,11.10
2019,06,15,04,43,11.10
2019,06,15,04,44,11.10
2019,06,15,04,45,11.00
2019,06,15,04,46,10.90
2019,06,15,04,47,10.90
2019,06,15,04,48,10.90
2019,06,15,04,49,10.90
2019,06,15,04,50,10.90
2019,06,15,04,51,10.90
2019,06,15,04,52,10.90
2019,06,15,04,53,10.90
2019,06,15,04,54,10.90
2019,06,15,04,55,10.90
2019,06,15,04,56,10.90
2019,06,15,04,57,10.90
2019,06,15,04,58,10.90
2019,06,15,04,59,10.90
2019,06,15,05,00,10.90
2019,06,15,05,01,10.90
2019,06,15,05,02,10.90
2019,06,15,05,03,10.90
2019,06,15,05,04,10.90
2019,06,15,05,05,10.90
2019,06,15,05,06,10.90
2019,06,15,05,07,10.90
2019,06,15,05,08,10.90
2019,06,15,05,09,10.80
2019,06,15,05,10,10.80
2019,06,15,05,11,10.80
2019,06,15,05,12,10.80
2019,06,15,05,13,10.80
2019,06,15,05,14,10.80
2019,06,15,05,15,10.80
2019,06,15,05,16,10.70
2019,06,15,05,17,10.70
2019,06,15,05,18,10.70
2019,06,15,05,19,10.70
2019,06,15,05,20,10.70
2019,06,15,05,21,10.70
2019,06,15,05,22,10.70
2019,06,15,05,23,10.70
2019,06,15,05,24,10.70
2019,06,15,05,25,10.70
2019,06,15,05,26,10.70
2019,06,15,05,27,10.80
2019,06,15,05,28,10.80
2019,06,15,05,29,10.80
2019,06,15,05,30,10.80
2019,06,15,05,31,10.80
2019,06,15,05,32,10.80
2019,06,15,05,33,10.90
2019,06,15,05,34,10.90
2019,06,15,05,35,10.90
2019,06,15,05,36,10.90
2019,06,15,05,37,10.90
2019,06,15,05,38,10.90
2019,06,15,05,39,10.90
2019,06,15,05,40,10.90
2019,06,15,05,41,10.90
2019,06,15,05,42,10.90
2019,06,15,05,43,10.90
2019,06,15,05,44,10.90
2019,06,15,05,45,10.90
2019,06,15,05,46,10.90
2019,06,15,05,47,10.90
2019,06,15,05,48,10.90
2019,06,15,05,49,10.90
2019,06,15,05,50,10.90
2019,06,15,05,51,10.90
2019,06,15,05,52,10.90
2019,06,15,05,53,10.90
2019,06,15,05,54,10.90
2019,06,15,05,55,10.90
2019,06,15,05,56,10.90
2019,06,15,05,57,10.80
2019,06,15,05,58,10.80
2019,06,15,05,59,10.80
2019,06,15,06,00,10.80
2019,06,15,06,01,10.80
2019,06,15,06,02,10.80
2019,06,15,06,03,10.80
2019,06,15,06,04,10.80
2019,06,15,06,05,10.80
2019,06,15,06,06,10.80
2019,06,15,06,07,10.90
2019,06,15,06,08,10.90
2019,06,15,06,09,10.90
2019,06,15,06,10,10.90
2019,06,15,06,11,10.90
2019,06,15,06,12,10.90
2019,06,15,06,13,10.90
2019,06,15,06,14,11.10
2019,06,15,06,15,11.10
2019,06,15,06,16,11.10
2019,06,15,06,17,11.10
2019,06,15,06,18,11.10
2019,06,15,06,19,11.10
2019,06,15,06,20,11.10
2019,06,15,06,21,11.20
2019,06,15,06,22,11.30
2019,06,15,06,23,11.40
2019,06,15,06,24,11.40
2019,06,15,06,25,11.40
2019,06,15,06,26,11.60
2019,06,15,06,27,11.60
2019,06,15,06,28,11.80
2019,06,15,06,29,11.80
2019,06,15,06,30,11.80
2019,06,15,06,31,11.90
2019,06,15,06,32,12.00
2019,06,15,06,33,12.00
2019,06,15,06,34,12.10
2019,06,15,06,35,12.10
2019,06,15,06,36,12.10
2019,06,15,06,37,12.20
2019,06,15,06,38,12.20
2019,06,15,06,39,12.20
2019,06,15,06,40,12.30
2019,06,15,06,41,12.30
2019,06,15,06,42,12.30
2019,06,15,06,43,12.40
2019,06,15,06,44,12.40
2019,06,15,06,45,12.40
2019,06,15,06,46,12.40
2019,06,15,06,47,12.40
2019,06,15,06,48,12.50
2019,06,15,06,49,12.50
2019,06,15,06,50,12.50
2019,06,15,06,51,12.50
2019,06,15,06,52,12.60
2019,06,15,06,53,12.60
2019,06,15,06,54,12.60
2019,06,15,06,55,12.70
2019,06,15,06,56,12.70
2019,06,15,06,57,12.70
2019,06,15,06,58,12.80
2019,06,15,06,59,12.80
2019,06,15,07,00,12.80
2019,06,15,07,01,12.80
2019,06,15,07,02,12.80
2019,06,15,07,03,13.00
2019,06,15,07,04,13.00
2019,06,15,07,05,13.10
2019,06,15,07,06,13.10
2019,06,15,07,07,13.10
2019,06,15,07,08,13.20
2019,06,15,07,09,13.20
2019,06,15,07,10,13.20
2019,06,15,07,11,13.30
2019,06,15,07,12,13.30
2019,06,15,07,13,13.30
2019,06,15,07,14,13.30
2019,06,15,07,15,13.30
2019,06,15,07,16,13.40
2019,06,15,07,17,13.40
2019,06,15,07,18,13.40
2019,06,15,07,19,13.50
2019,06,15,07,20,13.50
2019,06,15,07,21,13.50
2019,06,15,07,22,13.60
2019,06,15,07,23,13.60
2019,06,15,07,24,13.70
2019,06,15,07,25,13.70
2019,06,15,07,26,13.80
2019,06,15,07,27,13.90
2019,06,15,07,28,14.00
2019,06,15,07,29,14.10
2019,06,15,07,30,14.20
2019,06,15,07,31,14.40
2019,06,15,07,32,14.50
2019,06,15,07,33,14.60
2019,06,15,07,34,14.70
2019,06,15,07,35,14.80
2019,06,15,07,36,14.80
2019,06,15,07,37,14.70
2019,06,15,07,38,14.60
2019,06,15,07,39,14.50
2019,06,15,07,40,14.40
2019,06,15,07,41,14.40
2019,06,15,07,42,14.50
2019,06,15,07,43,14.50
2019,06,15,07,44,14.50
2019,06,15,07,45,14.60
2019,06,15,07,46,14.60
2019,06,15,07,47,14.50
2019,06,15,07,48,14.40
2019,06,15,07,49,14.40
2019,06,15,07,50,14.30
2019,06,15,07,51,14.30
2019,06,15,07,52,14.30
2019,06,15,07,53,14.40
2019,06,15,07,54,14.40
2019,06,15,07,55,14.50
2019,06,15,07,56,14.60
2019,06,15,07,57,14.70
2019,06,15,07,58,14.80
2019,06,15,07,59,14.80
2019,06,15,08,00,14.80
2019,06,15,08,01,14.80
2019,06,15,08,02,14.80
2019,06,15,08,03,14.80
2019,06,15,08,04,14.80
2019,06,15,08,05,14.80
2019,06,15,08,06,14.80
2019,06,15,08,07,14.80
2019,06,15,08,08,14.80
2019,06,15,08,09,14.80
2019,06,15,08,10,14.80
2019,06,15,08,11,14.80
2019,06,15,08,12,14.80
2019,06,15,08,13,14.80
2019,06,15,08,14,14.80
2019,06,15,08,15,14.80
2019,06,15,08,16,14.80
2019,06,15,08,17,14.80
2019,06,15,08,18,14.80
2019,06,15,08,19,14.80
2019,06,15,08,20,14.80
2019,06,15,08,21,14.80
2019,06,15,08,37,15.20
2019,06,15,08,38,15.20
2019,06,15,08,39,15.20
2019,06,15,08,40,15.20
2019,06,15,08,41,15.20
2019,06,15,08,42,15.20
2019,06,15,08,43,15.20
2019,06,15,08,44,15.30
2019,06,15,08,45,15.30
2019,06,15,08,46,15.40
2019,06,15,08,47,15.40
2019,06,15,08,48,15.50
2019,06,15,08,49,15.50
2019,06,15,08,50,15.60
2019,06,15,08,51,15.60
2019,06,15,08,52,15.50
2019,06,15,08,53,15.50
2019,06,15,08,54,15.50
2019,06,15,08,55,15.50
2019,06,15,08,56,15.60
2019,06,15,08,57,15.70
2019,06,15,08,58,15.70
2019,06,15,08,59,15.70
2019,06,15,09,00,15.70
2019,06,15,09,01,15.70
2019,06,15,09,02,15.70
2019,06,15,09,03,15.70
2019,06,15,09,04,15.70
2019,06,15,09,05,15.80
2019,06,15,09,06,15.80
2019,06,15,09,07,15.80
2019,06,15,09,08,15.80
2019,06,15,09,09,15.90
2019,06,15,09,10,16.00
2019,06,15,09,11,16.10
2019,06,15,09,12,16.20
2019,06,15,09,13,16.20
2019,06,15,09,14,16.30
2019,06,15,09,15,16.30
2019,06,15,09,16,16.30
2019,06,15,09,17,16.30
2019,06,15,09,18,16.30
2019,06,15,09,19,16.40
2019,06,15,09,20,16.40
2019,06,15,09,21,16.50
2019,06,15,09,22,16.60
2019,06,15,09,23,16.60
2019,06,15,09,24,16.70
2019,06,15,09,25,16.70
2019,06,15,09,26,16.70
2019,06,15,09,27,16.80
2019,06,15,09,28,16.90
2019,06,15,09,29,16.90
2019,06,15,09,30,17.00
2019,06,15,09,31,17.10
2019,06,15,09,32,17.20
2019,06,15,09,33,17.30
2019,06,15,09,34,17.40
2019,06,15,09,35,17.40
2019,06,15,09,36,17.50
2019,06,15,09,37,17.50
2019,06,15,09,38,17.40
2019,06,15,09,39,17.40
2019,06,15,09,40,17.30
2019,06,15,09,41,17.00
2019,06,15,09,42,16.90
2019,06,15,09,43,16.70
2019,06,15,09,44,16.70
2019,06,15,09,45,16.70
2019,06,15,09,46,16.60
2019,06,15,09,47,16.60
2019,06,15,09,48,16.50
2019,06,15,09,49,16.40
2019,06,15,09,50,16.40
2019,06,15,09,51,16.40
2019,06,15,09,52,16.50
2019,06,15,09,53,16.40
2019,06,15,09,54,16.40
2019,06,15,09,55,16.40
2019,06,15,09,56,16.60
2019,06,15,09,57,16.60
2019,06,15,09,58,16.60
2019,06,15,09,59,16.70
2019,06,15,10,00,16.70
2019,06,15,10,01,16.70
2019,06,15,10,02,16.70
2019,06,15,10,03,16.70
2019,06,15,10,04,16.70
2019,06,15,10,05,16.70
2019,06,15,10,06,16.80
2019,06,15,10,07,16.90
2019,06,15,10,08,17.00
2019,06,15,10,09,17.00
2019,06,15,10,10,17.00
2019,06,15,10,11,17.00
2019,06,15,10,12,17.00
2019,06,15,10,13,16.90
2019,06,15,10,14,16.90
2019,06,15,10,15,16.80
2019,06,15,10,16,16.80
2019,06,15,10,17,16.80
2019,06,15,10,18,16.80
2019,06,15,10,19,16.80
2019,06,15,10,20,16.80
2019,06,15,10,21,16.90
2019,06,15,10,22,16.80
2019,06,15,10,23,16.80
2019,06,15,10,24,16.80
2019,06,15,10,25,16.70
2019,06,15,10,26,16.70
2019,06,15,10,27,16.70
2019,06,15,10,28,16.70
2019,06,15,10,29,16.70
2019,06,15,10,30,16.80
2019,06,15,10,31,16.90
2019,06,15,10,32,17.00
2019,06,15,10,33,17.00
2019,06,15,10,34,17.00
2019,06,15,10,35,17.10
2019,06,15,10,36,17.00
2019,06,15,10,37,17.10
2019,06,15,10,38,17.20
2019,06,15,10,39,17.20
2019,06,15,10,40,17.20
2019,06,15,10,41,17.20
2019,06,15,10,42,17.20
2019,06,15,10,43,17.20
2019,06,15,10,44,17.30
2019,06,15,10,45,17.30
2019,06,15,10,46,17.40
2019,06,15,10,47,17.50
2019,06,15,10,48,17.60
2019,06,15,10,49,17.60
2019,06,15,10,50,17.70
2019,06,15,10,51,17.70
2019,06,15,10,52,17.70
2019,06,15,10,53,17.70
2019,06,15,10,54,17.80
2019,06,15,10,55,17.90
2019,06,15,10,56,17.90
2019,06,15,10,57,17.90
2019,06,15,10,58,17.90
2019,06,15,10,59,17.90
2019,06,15,11,00,17.90
2019,06,15,11,01,17.90
2019,06,15,11,02,17.90
2019,06,15,11,03,17.90
2019,06,15,11,04,18.00
2019,06,15,11,05,18.10
2019,06,15,11,06,18.10
2019,06,15,11,07,18.10
2019,06,15,11,08,18.20
2019,06,15,11,09,18.20
2019,06,15,11,10,18.40
2019,06,15,11,11,18.50
2019,06,15,11,12,18.70
2019,06,15,11,13,18.90
2019,06,15,11,14,19.00
2019,06,15,11,15,19.10
2019,06,15,11,16,19.20
2019,06,15,11,17,19.30
2019,06,15,11,18,19.40
2019,06,15,11,19,19.50
2019,06,15,11,20,19.60
2019,06,15,11,21,19.60
2019,06,15,11,22,19.70
2019,06,15,11,23,19.80
2019,06,15,11,24,19.70
2019,06,15,11,25,19.50
2019,06,15,11,26,19.30
2019,06,15,11,27,19.10
2019,06,15,11,28,18.90
2019,06,15,11,29,18.80
2019,06,15,11,30,18.70
2019,06,15,11,31,18.70
2019,06,15,11,32,18.50
2019,06,15,11,33,18.40
2019,06,15,11,34,18.40
2019,06,15,11,35,18.50
2019,06,15,11,36,18.60
2019,06,15,11,37,18.60
2019,06,15,11,38,18.60
2019,06,15,11,39,18.70
2019,06,15,11,40,18.70
2019,06,15,11,41,18.80
2019,06,15,11,42,18.80
2019,06,15,11,43,18.70
2019,06,15,11,44,18.60
2019,06,15,11,45,18.60
2019,06,15,11,46,18.60
2019,06,15,11,47,18.70
2019,06,15,11,48,18.80
2019,06,15,11,49,18.90
2019,06,15,11,50,18.90
2019,06,15,11,51,18.90
2019,06,15,11,52,18.90
2019,06,15,11,53,19.00
2019,06,15,11,54,19.10
2019,06,15,11,55,19.10
2019,06,15,11,56,19.20
2019,06,15,11,57,19.30
2019,06,15,11,58,19.50
2019,06,15,11,59,19.60
2019,06,15,12,00,19.80
2019,06,15,12,01,19.80
2019,06,15,12,02,19.60
2019,06,15,12,03,19.40
2019,06,15,12,04,19.40
2019,06,15,12,05,19.40
2019,06,15,12,06,19.40
2019,06,15,12,07,19.50
2019,06,15,12,08,19.60
2019,06,15,12,09,19.70
2019,06,15,12,10,19.70
2019,06,15,12,11,19.70
2019,06,15,12,12,19.50
2019,06,15,12,13,19.30
2019,06,15,12,14,19.00
2019,06,15,12,15,18.80
2019,06,15,12,16,18.60
2019,06,15,12,17,18.60
2019,06,15,12,18,18.60
2019,06,15,12,19,18.50
2019,06,15,12,20,18.50
2019,06,15,12,21,18.50
2019,06,15,12,22,18.60
2019,06,15,12,23,18.60
2019,06,15,12,24,18.70
2019,06,15,12,25,18.80
2019,06,15,12,26,18.90
2019,06,15,12,27,18.90
2019,06,15,12,28,18.90
2019,06,15,12,29,18.90
2019,06,15,12,30,18.90
2019,06,15,12,31,18.90
2019,06,15,12,32,18.90
2019,06,15,12,33,18.90
2019,06,15,12,34,18.80
2019,06,15,12,35,18.70
2019,06,15,12,36,18.60
2019,06,15,12,37,18.50
2019,06,15,12,38,18.50
2019,06,15,12,39,18.50
2019,06,15,12,40,18.50
2019,06,15,12,41,18.50
2019,06,15,12,42,18.70
2019,06,15,12,43,18.80
2019,06,15,12,44,19.00
2019,06,15,12,45,19.10
2019,06,15,12,46,19.10
2019,06,15,12,47,19.10
2019,06,15,12,48,19.10
2019,06,15,12,49,19.10
2019,06,15,12,50,19.00
2019,06,15,12,51,18.90
2019,06,15,12,52,18.80
2019,06,15,12,53,18.90
2019,06,15,12,54,18.90
2019,06,15,12,55,18.90
2019,06,15,12,56,18.90
2019,06,15,12,57,18.90
2019,06,15,12,58,18.90
2019,06,15,12,59,18.90
2019,06,15,13,00,19.10
2019,06,15,13,01,19.10
2019,06,15,13,02,19.10
2019,06,15,13,03,19.10
2019,06,15,13,04,19.20
2019,06,15,13,05,19.30
2019,06,15,13,06,19.30
2019,06,15,13,07,19.30
2019,06,15,13,08,19.30
2019,06,15,13,09,19.20
2019,06,15,13,10,19.30
2019,06,15,13,11,19.30
2019,06,15,13,12,19.30
2019,06,15,13,13,19.30
2019,06,15,13,14,19.40
2019,06,15,13,15,19.40
2019,06,15,13,16,19.50
2019,06,15,13,17,19.50
2019,06,15,13,18,19.50
2019,06,15,13,19,19.40
2019,06,15,13,20,19.40
2019,06,15,13,21,19.30
2019,06,15,13,22,19.20
2019,06,15,13,23,19.30
2019,06,15,13,24,19.20
2019,06,15,13,25,19.10
2019,06,15,13,26,19.10
2019,06,15,13,27,19.20
2019,06,15,13,28,19.10
2019,06,15,13,29,19.10
2019,06,15,13,30,19.10
2019,06,15,13,31,19.10
2019,06,15,13,32,19.00
2019,06,15,13,33,18.90
2019,06,15,13,34,18.90
2019,06,15,13,35,18.90
2019,06,15,13,36,19.00
2019,06,15,13,37,19.10
2019,06,15,13,38,19.20
2019,06,15,13,39,19.30
2019,06,15,13,40,19.20
2019,06,15,13,41,19.20
2019,06,15,13,42,19.10
2019,06,15,13,43,19.10
2019,06,15,13,44,19.10
2019,06,15,13,45,19.00
2019,06,15,13,46,18.90
2019,06,15,13,47,18.90
2019,06,15,13,48,18.90
2019,06,15,13,49,19.00
2019,06,15,13,50,19.10
2019,06,15,13,51,19.10
2019,06,15,13,52,19.10
2019,06,15,13,53,19.20
2019,06,15,13,54,19.20
2019,06,15,13,55,19.10
2019,06,15,13,56,19.20
2019,06,15,13,57,19.10
2019,06,15,13,58,19.10
2019,06,15,13,59,19.20
2019,06,15,14,00,19.40
2019,06,15,14,01,19.40
2019,06,15,14,02,19.40
2019,06,15,14,03,19.40
2019,06,15,14,04,19.50
2019,06,15,14,05,19.60
2019,06,15,14,06,19.70
2019,06,15,14,07,19.80
2019,06,15,14,08,19.90
2019,06,15,14,09,20.10
2019,06,15,14,10,20.20
2019,06,15,14,11,20.20
2019,06,15,14,12,20.10
2019,06,15,14,13,20.10
2019,06,15,14,14,20.20
2019,06,15,14,15,20.20
2019,06,15,14,16,20.20
2019,06,15,14,17,20.20
2019,06,15,14,18,20.30
2019,06,15,14,19,20.30
2019,06,15,14,20,20.30
2019,06,15,14,21,20.40
2019,06,15,14,22,20.20
2019,06,15,14,23,20.10
2019,06,15,14,24,19.90
2019,06,15,14,25,19.70
2019,06,15,14,26,19.70
2019,06,15,14,27,19.60
2019,06,15,14,28,19.60
2019,06,15,14,29,19.60
2019,06,15,14,30,19.60
2019,06,15,14,31,19.60
2019,06,15,14,32,19.70
2019,06,15,14,33,19.80
2019,06,15,14,34,19.80
2019,06,15,14,35,19.70
2019,06,15,14,36,19.60
2019,06,15,14,37,19.60
2019,06,15,14,38,19.60
2019,06,15,14,39,19.60
2019,06,15,14,40,19.50
2019,06,15,14,41,19.60
2019,06,15,14,42,19.60
2019,06,15,14,43,19.60
2019,06,15,14,44,19.70
2019,06,15,14,45,19.80
2019,06,15,14,46,19.90
2019,06,15,14,47,19.90
2019,06,15,14,48,19.90
2019,06,15,14,49,20.00
2019,06,15,14,50,20.10
2019,06,15,14,51,20.20
2019,06,15,14,52,20.20
2019,06,15,14,53,20.20
2019,06,15,14,54,20.20
2019,06,15,14,55,20.20
2019,06,15,14,56,20.30
2019,06,15,14,57,20.40
2019,06,15,14,58,20.50
2019,06,15,14,59,20.60
2019,06,15,15,00,20.60
2019,06,15,15,01,20.60
2019,06,15,15,02,20.50
2019,06,15,15,03,20.30
2019,06,15,15,04,20.10
2019,06,15,15,05,19.90
2019,06,15,15,06,19.80
2019,06,15,15,07,19.80
2019,06,15,15,08,19.90
2019,06,15,15,09,20.00
2019,06,15,15,10,20.10
2019,06,15,15,11,20.20
2019,06,15,15,12,20.20
2019,06,15,15,13,20.20
2019,06,15,15,14,20.00
2019,06,15,15,15,19.90
2019,06,15,15,16,20.00
2019,06,15,15,17,20.10
2019,06,15,15,18,20.20
2019,06,15,15,19,20.30
2019,06,15,15,20,20.40
2019,06,15,15,21,20.40
2019,06,15,15,22,20.40
2019,06,15,15,23,20.40
2019,06,15,15,24,20.40
2019,06,15,15,25,20.50
2019,06,15,15,26,20.60
2019,06,15,15,27,20.50
2019,06,15,15,28,20.40
2019,06,15,15,29,20.30
2019,06,15,15,30,20.20
2019,06,15,15,31,20.20
2019,06,15,15,32,20.30
2019,06,15,15,33,20.40
2019,06,15,15,34,20.40
2019,06,15,15,35,20.50
2019,06,15,15,36,20.50
2019,06,15,15,37,20.50
2019,06,15,15,38,20.60
2019,06,15,15,39,20.50
2019,06,15,15,40,20.50
2019,06,15,15,41,20.60
2019,06,15,15,42,20.70
2019,06,15,15,43,20.80
2019,06,15,15,44,20.80
2019,06,15,15,45,20.80
2019,06,15,15,46,20.90
2019,06,15,15,47,20.90
2019,06,15,15,48,20.90
2019,06,15,15,49,20.80
2019,06,15,15,50,20.70
2019,06,15,15,51,20.70
2019,06,15,15,52,20.80
2019,06,15,15,53,20.70
2019,06,15,15,54,20.60
2019,06,15,15,55,20.60
2019,06,15,15,56,20.60
2019,06,15,15,57,20.70
2019,06,15,15,58,20.90
2019,06,15,15,59,21.00
2019,06,15,16,00,20.90
2019,06,15,16,01,20.80
2019,06,15,16,02,20.90
2019,06,15,16,03,20.80
2019,06,15,16,04,20.70
2019,06,15,16,05,20.70
2019,06,15,16,06,20.60
2019,06,15,16,07,20.60
2019,06,15,16,08,20.50
2019,06,15,16,09,20.50
2019,06,15,16,10,20.50
2019,06,15,16,11,20.50
2019,06,15,16,12,20.50
2019,06,15,16,13,20.60
2019,06,15,16,14,20.60
2019,06,15,16,15,20.60
2019,06,15,16,16,20.50
2019,06,15,16,17,20.50
2019,06,15,16,18,20.60
2019,06,15,16,19,20.50
2019,06,15,16,20,20.40
2019,06,15,16,21,20.50
2019,06,15,16,22,20.60
2019,06,15,16,23,20.70
2019,06,15,16,24,20.80
2019,06,15,16,25,20.80
2019,06,15,16,26,20.90
2019,06,15,16,27,20.80
2019,06,15,16,28,20.80
2019,06,15,16,29,20.90
2019,06,15,16,30,20.90
2019,06,15,16,31,20.80
2019,06,15,16,32,20.70
2019,06,15,16,33,20.70
2019,06,15,16,34,20.80
2019,06,15,16,35,20.80
2019,06,15,16,36,20.70
2019,06,15,16,37,20.70
2019,06,15,16,38,20.80
2019,06,15,16,39,20.80
2019,06,15,16,40,20.80
2019,06,15,16,41,20.80
2019,06,15,16,42,20.70
2019,06,15,16,43,20.60
2019,06,15,16,44,20.40
2019,06,15,16,45,20.30
2019,06,15,16,46,20.30
2019,06,15,16,47,20.30
2019,06,15,16,48,20.40
2019,06,15,16,49,20.50
2019,06,15,16,50,20.50
2019,06,15,16,51,20.50
2019,06,15,16,52,20.60
2019,06,15,16,53,20.60
2019,06,15,16,54,20.40
2019,06,15,16,55,20.50
2019,06,15,16,56,20.50
2019,06,15,16,57,20.40
2019,06,15,16,58,20.40
2019,06,15,16,59,20.50
2019,06,15,17,00,20.50
2019,06,15,17,01,20.40
2019,06,15,17,02,20.40
2019,06,15,17,03,20.20
2019,06,15,17,04,20.20
2019,06,15,17,05,20.30
2019,06,15,17,06,20.40
2019,06,15,17,07,20.60
2019,06,15,17,08,20.60
2019,06,15,17,09,20.60
2019,06,15,17,10,20.60
2019,06,15,17,11,20.50
2019,06,15,17,12,20.40
2019,06,15,17,13,20.40
2019,06,15,17,14,20.50
2019,06,15,17,15,20.50
2019,06,15,17,16,20.50
2019,06,15,17,17,20.50
2019,06,15,17,18,20.40
2019,06,15,17,19,20.50
2019,06,15,17,20,20.50
2019,06,15,17,21,20.70
2019,06,15,17,22,20.70
2019,06,15,17,23,20.70
2019,06,15,17,24,20.70
2019,06,15,17,25,20.80
2019,06,15,17,26,20.80
2019,06,15,17,27,20.70
2019,06,15,17,28,20.70
2019,06,15,17,29,20.50
2019,06,15,17,30,20.50
2019,06,15,17,31,20.50
2019,06,15,17,32,20.50
2019,06,15,17,33,20.50
2019,06,15,17,34,20.50